User: anonymous   Login
Location: Poprad
(49.0500°N, 20.3000°E)
Time: 17:46:01
(UTC+02:00)
Language:

STSAT 3 - Orbit

View from above orbital plane
View from above orbital plane
View from above satellite
View from above satellite

Ground track
Ground track

The orbit data is extracted from the following two-line orbital elements,

1 39422U 13066G   24194.18925639  .00003181  00000-0  29400-3 0  9990
2 39422  97.5211 172.6755 0019129 276.8863  83.0182 14.95132610578556
Epoch (UTC): 12 July 2024 04:32:31
Eccentricity: 0.0019129
inclination: 97.5211°
perigee height: 568 km
apogee height: 595 km
right ascension of ascending node: 172.6755°
argument of perigee: 276.8863°
revolutions per day: 14.95132610
mean anomaly at epoch: 83.0182°
orbit number at epoch: 57855

The dashed part of the orbit path shows where the satellite is in the earth's shadow,  

DLR